sat.trackr.live / text

‹ back to catalog

STARLINK-34542

NORAD 65890 · 2025-224J

PAYLOAD ACTIVE UNKNOWN

§ Identity

Operator
Country
US
Launch date
2025-10-07
Launch site
AFETR
Launch vehicle
Mass (kg)
RCS (m²)

Purposes: comms

External: N2YO · Heavens-Above · Gunter

§ Orbital elements

Epoch: 2026-09-20T07:24:04.976352Z

Period
93.85 min
Inclination
53.1587°
Eccentricity
0.0001788
Mean motion
15.34397240 rev/d
Perigee alt
461.5 km
Apogee alt
463.9 km
Semi-major
6,840.8 km
B*
4.5410e-4
RAAN
186.4869°
Arg perigee
120.4942°
Mean anomaly
239.6238°
Rev number
5,468

§ Raw data

STARLINK-345421 65890U 25224J   26263.30839093  .00014995  00000+0  45410-3 0  99912 65890  53.1587 186.4869 0001788 120.4942 239.6238 15.34397240 54681

JSON: /api/v1/satellites/65890 · /tle

For live sub-satellite position, see the globe view (requires WebGL).

§ Visibility from observer

Set your observer location to see the next 7 days of passes ≥ 10°. The values pass through the URL so the page stays shareable.

No JS? Fill the form by hand. The geolocation button needs JavaScript.